"Pseudo-MPEC" for C0MUJZ2

Created 2019 May 24 15:07:09 UT using Find_Orb

Click here for an explanation of pseudo-MPECs

 
 Astrometry: 
     C0MUJZ2  C2019 05 15.31597 16 19 12.94 -16 03 19.7    ~5F8b 19.3 GVNEOCPG96
     C0MUJZ2  C2019 05 15.32161 16 19 10.34 -16 03 23.0    ~5F8b 19.5 GVNEOCPG96
     C0MUJZ2  C2019 05 15.32724 16 19 07.71 -16 03 25.7    ~5F8b 19.4 GVNEOCPG96
     C0MUJZ2  C2019 05 15.33287 16 19 05.14 -16 03 29.0    ~5F8b 19.9 GVNEOCPG96
     C0MUJZ2  C2019 05 15.35350516 18 55.43 -16 03 40.4    ~5F9M 20.0 GVNEOCPH01
     C0MUJZ2  C2019 05 15.36033216 18 52.29 -16 03 43.8    ~5F9M 19.9 GVNEOCPH01
     C0MUJZ2  C2019 05 15.36985916 18 47.91 -16 03 48.7    ~5F9M 19.5 GVNEOCPH01
     C0MUJZ2  C2019 05 15.37615216 18 45.03 -16 03 51.7    ~5F9M 19.8 GVNEOCPH01
     C0MUJZ2  C2019 05 15.44221 16 18 15.11 -16 04 22.7    ~5FB7 19.7 GVNEOCPI52
     C0MUJZ2  C2019 05 15.44268 16 18 14.91 -16 04 22.8    ~5FB7 19.4 GVNEOCPI52
     C0MUJZ2  C2019 05 15.44315 16 18 14.68 -16 04 23.1    ~5FB7 19.3 GVNEOCPI52
     C0MUJZ2  C2019 05 15.44363 16 18 14.45 -16 04 23.5    ~5FB7 19.7 GVNEOCPI52
     C0MUJZ2  C2019 05 16.32745 16 12 11.84 -16 11 14.0    ~5G8M 19.0 GVNEOCPI52
     C0MUJZ2  C2019 05 16.32985 16 12 10.84 -16 11 14.9    ~5G8M 19.6 GVNEOCPI52
     C0MUJZ2  C2019 05 16.33105 16 12 10.41 -16 11 15.0    ~5G8M 19.5 GVNEOCPI52
     C0MUJZ2 IC2019 05 16K8g;!C05R@AONB3N^Astrometry.1Y;Z_`7Q98mac`NYaqiQ#/LRL01
     C0MUJZ2 pC2019 05 168H?fK$t67iqv*redacted;.'Ct*ZXwv)f',PS9h!X.L6\='L4#VvL01
     C0MUJZ2 KC2019 05 16^yP3]nmokCx2J^WQ^3dF9T(V\.D9@xqq1T?X#eUQ:m8E+K/Qdd3AL01
     C0MUJZ2 KC2019 05 16FBe_:`721H@P'D;]ylcm9!9DOk@cf@_+ZykqeV@,-G*^)IGQb#DaL01
     C0MUJZ2 pC2019 05 16)F6NgS:-lgFE_1YqcZUe_h?jQclickB4lZ\T!jIc\I*\niHJ?3\uL01
     C0MUJZ2 KC2019 05 21S4A@XLlrBUQ(EE[#OKsfvu_c2428,Z#L7ESlv5kP4LScjY\0U2pD291
     C0MUJZ2 KC2019 05 21*50-'qAEtn\s!here(pjs$.ADg$Uvj%:h/)xp0I80C`F=;)g+VAc291
     C0MUJZ2 KC2019 05 21VO*!b08,5-txjMIUvfor;e@!e7pnXUKy[)6y?FlK5yF4Cs7xIR=i291
     C0MUJZ2 KC2019 05 21.89947 15 45 30.71 -16 34 49.9    ~5LMq 19.9 VqNEOCPI93
     C0MUJZ2 KC2019 05 21.91813 15 45 26.65 -16 34 53.6    ~5LMq 19.9 VqNEOCPI93
     C0MUJZ2  C2019 05 23.18864615 41 17.67 -16 37 46.2    ~5N5M 20.8 GVNEOCPH01
     C0MUJZ2  C2019 05 23.19346115 41 16.74 -16 37 47.0    ~5N5M 20.9 GVNEOCPH01
     C0MUJZ2  C2019 05 23.20258115 41 14.96 -16 37 48.5    ~5N5M 20.7 GVNEOCPH01
     C0MUJZ2 KC2019 05 23-)Z#w8XlP^u,NtKOfQd?QRc$i;MAYqNbQ+9D=p6G.eT\9Y1dPy;(691
     C0MUJZ2  C2019 05 23.20943515 41 13.63 -16 37 49.4    ~5N5M 20.7 GVNEOCPH01
     C0MUJZ2 KC2019 05 23b?rXGm7vSo'lmy]FJTa4rBRun+8gWp4J-RFexplanation`(,I[#691
     C0MUJZ2  C2019 05 24.29406 15 38 03.74 -16 40 00.7    ~5O7b 21.3 GVNEOCPI52
     C0MUJZ2  C2019 05 24.29531 15 38 03.53 -16 40 00.2    ~5O7b 20.9 GVNEOCPI52
     C0MUJZ2  C2019 05 24.29656 15 38 03.26 -16 40 00.9    ~5O7b 21.4 GVNEOCPI52
     C0MUJZ2  C2019 05 24.29781 15 38 03.09 -16 40 01.1    ~5O7b 20.9 GVNEOCPI52

Station data:
(291) LPL/Spacewatch II  (N31.961669 W111.599905)  US/Arizona.  Observers J.
   V. Scotti, R. S. McMillan. 1.8-m f/2.7 reflector + CCD.
(691) Steward Observatory, Kitt Peak - Spacewatch  (N31.962174 W111.600327)
   US/Arizona.  Observer J. V. Scotti. 0.9-m f/3 reflector + CCD.
(G96) Mt. Lemmon Survey  (N32.442754 W110.788720)  US/Arizona.  Observers T.
   A. Pruyne, B. M. Africano, E. J. Christensen, G. A. Farneth, D. C. Fuls,
   A. R. Gibbs, A. D. Grauer, H. Groeller, J. A. Johnson, R. A. Kowalski, S.
   M. Larson, G. J. Leonard, R. L. Seaman, F. C. Shelly. 1.5-m reflector +
   10K CCD.
(H01) Magdalena Ridge Observatory, Socorro  (N33.984833 W107.189333)  US/New
   Mexico.  Observers W. H. Ryan, E. V. Ryan. Measurer W. H. Ryan. 2.4-m
   f/8.9 reflector + CCD.
(I52) Steward Observatory, Mt. Lemmon Station  (N32.442547 W110.788920)
   US/Arizona.  Observers T. A. Pruyne, B. M. Africano, E. J. Christensen, G.
   A. Farneth, D. C. Fuls, A. R. Gibbs, A. D. Grauer, H. Groeller, J. A.
   Johnson, R. A. Kowalski, S. M. Larson, G. J. Leonard, R. L. Seaman, F. C.
   Shelly. 1.0-m reflector + CCD.
(I93) St Pardon de Conques  (N44.558710 W0.203000)  France.  Observer F.
   Losse. 0.40-m f/3.7 reflector + CCD.
(L01) Višnjan Observatory, Tičan  (N45.290900 E13.749300)  Croatia.
   Observers K. Korlević, E. Pettarin. Measurer E. Pettarin. 1.0-m f/2.9
   reflector + CCD.

Orbital elements:  C0MUJZ2
   Perihelion 2019 Mar 16.437014 +/- 0.132 TT = 10:29:18 (JD 2458558.937014)
Epoch 2019 May 24.0 TT = JDT 2458627.5   Earth MOID: 0.0183   Ve: 0.0043
M  23.28549097 +/- 0.43             Ma: 0.0144                AutoNEOCP
n   0.33962189 +/- 0.0056           Peri.   49.35126 +/- 0.059
a   2.03456825 +/- 0.0224           Node    79.28782 +/- 0.07
e   0.7400228 +/- 0.0037            Incl.    1.87054 +/- 0.015
P   2.90                   H 22.9   G  0.15   U  9.3  
q 0.52894123 +/- 0.00167    Q 3.54019527 +/- 0.045
From 35 observations 2019 May 15-24; mean residual 0".27
Residuals in arcseconds: 
190515 G96  .08-  .18+    190516 I52  .03-  .25-    190521 I93  .22+  .03-    
190515 G96  .05+  .11-    190516 I52  .31-  .14-    190523 H01  .05-  .16-    
190515 G96  .33-  .18+    190516 I52  .55+  .26+    190523 H01  .03+  .21-    
190515 G96  .12+  .15-    190516 L01  .31-  .19-    190523 H01  .07-  .31-    
190515 H01  .06+  .01+    190516 L01  .13-  .75-    190523 691  .71+  .09-    
190515 H01  .06+  .07+    190516 L01  .05+  .54-    190523 H01  .01-  .16-    
190515 H01  .00   .06-    190516 L01  .45-  .46+    190523 691  .36-  .66+    
190515 H01  .08+  .07+    190516 L01  .29+  .06+    190524 I52  .06-  .40-    
190515 I52  .10+  .07+    190521 291  .14-  .34+    190524 I52  .10+  .24+    
190515 I52  .28+  .18+    190521 291  .07-  .28+    190524 I52  .60-  .32-    
190515 I52  .02+  .10+    190521 291  .33+  .19+    190524 I52  .14+  .38-    
190515 I52  .17-  .08-    190521 I93  .15-  .42+    

Ephemerides (geocentric):
Date (UTC) HH   RA              Dec         delta   r     elong  mag " sig PA
---- -- -- --  -------------   -----------  ------ ------ -----  --- ---- ---
2019 05 24 15  15 37 10.009   -16 40 13.58  .27876 1.2896 172.6 21.2 .070  41
2019 05 24 16  15 37 03.357   -16 40 18.21  .27930 1.2901 172.5 21.2 .071  44
2019 05 24 17  15 36 56.731   -16 40 22.83  .27983 1.2906 172.5 21.2 .072  48
2019 05 24 18  15 36 50.132   -16 40 27.43  .28036 1.2911 172.4 21.2 .073  51
2019 05 24 19  15 36 43.559   -16 40 32.02  .28090 1.2916 172.3 21.2 .074  54
2019 05 24 20  15 36 37.013   -16 40 36.58  .28143 1.2921 172.3 21.2 .076  58
2019 05 24 21  15 36 30.492   -16 40 41.13  .28197 1.2926 172.2 21.2 .077  61
2019 05 24 22  15 36 23.998   -16 40 45.67  .28250 1.2932 172.2 21.2 .079  64
2019 05 24 23  15 36 17.529   -16 40 50.19  .28304 1.2937 172.1 21.2 .082  67
2019 05 25 00  15 36 11.086   -16 40 54.69  .28357 1.2942 172.0 21.2 .084  69
2019 05 25 01  15 36 04.669   -16 40 59.17  .28411 1.2947 172.0 21.2 .087  72
2019 05 25 02  15 35 58.277   -16 41 03.64  .28465 1.2952 171.9 21.2 .090  74
2019 05 25 03  15 35 51.911   -16 41 08.10  .28518 1.2957 171.9 21.3 .093  77
2019 05 25 04  15 35 45.570   -16 41 12.54  .28572 1.2962 171.8 21.3 .097  79
2019 05 25 05  15 35 39.254   -16 41 16.96  .28626 1.2967 171.7 21.3 .101  81
2019 05 25 06  15 35 32.963   -16 41 21.37  .28679 1.2972 171.7 21.3 .104  83
2019 05 25 07  15 35 26.697   -16 41 25.77  .28733 1.2977 171.6 21.3 .108  84
2019 05 25 08  15 35 20.456   -16 41 30.15  .28787 1.2982 171.6 21.3 .112  86
2019 05 25 09  15 35 14.240   -16 41 34.51  .28841 1.2987 171.5 21.3 .116  88
2019 05 25 10  15 35 08.048   -16 41 38.86  .28895 1.2993 171.5 21.3 .121  89
2019 05 25 11  15 35 01.881   -16 41 43.20  .28948 1.2998 171.4 21.3 .125  90
2019 05 25 12  15 34 55.738   -16 41 47.53  .29002 1.3003 171.3 21.3 .130  92
2019 05 25 13  15 34 49.619   -16 41 51.84  .29056 1.3008 171.3 21.3 .135  93
2019 05 25 14  15 34 43.525   -16 41 56.13  .29110 1.3013 171.2 21.3 .139  94
2019 05 25 15  15 34 37.455   -16 42 00.42  .29164 1.3018 171.2 21.3 .144  95
2019 05 25 16  15 34 31.408   -16 42 04.69  .29218 1.3023 171.1 21.3 .149  96
2019 05 25 17  15 34 25.386   -16 42 08.95  .29272 1.3028 171.0 21.4 .155  97
2019 05 25 18  15 34 19.387   -16 42 13.19  .29326 1.3033 171.0 21.4 .160  98
2019 05 25 19  15 34 13.412   -16 42 17.42  .29380 1.3038 170.9 21.4 .165  99
2019 05 25 20  15 34 07.460   -16 42 21.64  .29434 1.3043 170.9 21.4 .171  99
2019 05 25 21  15 34 01.532   -16 42 25.85  .29488 1.3048 170.8 21.4 .176 100
2019 05 25 22  15 33 55.627   -16 42 30.05  .29542 1.3053 170.8 21.4 .182 101
2019 05 25 23  15 33 49.745   -16 42 34.23  .29596 1.3059 170.7 21.4 .187 101
2019 05 26 00  15 33 43.887   -16 42 38.40  .29650 1.3064 170.6 21.4 .193 102
2019 05 26 01  15 33 38.051   -16 42 42.56  .29705 1.3069 170.6 21.4 .199 103
2019 05 26 02  15 33 32.239   -16 42 46.71  .29759 1.3074 170.5 21.4 .205 103
2019 05 26 03  15 33 26.449   -16 42 50.85  .29813 1.3079 170.5 21.4 .211 104
2019 05 26 04  15 33 20.682   -16 42 54.98  .29867 1.3084 170.4 21.4 .217 104
2019 05 26 05  15 33 14.937   -16 42 59.09  .29922 1.3089 170.3 21.4 .223 104
2019 05 26 06  15 33 09.215   -16 43 03.20  .29976 1.3094 170.3 21.4 .229 105
2019 05 26 07  15 33 03.516   -16 43 07.29  .30030 1.3099 170.2 21.4 .236 105
2019 05 26 08  15 32 57.839   -16 43 11.38  .30085 1.3104 170.2 21.5 .242 106
2019 05 26 09  15 32 52.184   -16 43 15.45  .30139 1.3109 170.1 21.5 .249 106
2019 05 26 10  15 32 46.551   -16 43 19.52  .30193 1.3114 170.0 21.5 .255 106
2019 05 26 11  15 32 40.941   -16 43 23.57  .30248 1.3119 170.0 21.5 .262 107
2019 05 26 12  15 32 35.352   -16 43 27.61  .30302 1.3124 169.9 21.5 .269 107
2019 05 26 13  15 32 29.785   -16 43 31.65  .30357 1.3129 169.9 21.5 .275 107
2019 05 26 14  15 32 24.240   -16 43 35.67  .30411 1.3134 169.8 21.5 .282 108